Regional Weather Roundup
Issued by NWS

Home | Current Version | Previous Version | Text Only | Print | Product List | Glossary Off
Versions: 1 2 3 4 5 6 7 8 9 10 11 12 13 14 15 16 17 18 19 20 21 22 23 24 25 26 27 28 29 30 31 32 33 34 35 36 37 38 39 40 41 42 43 44 45 46 47 48 49 50

000
ASUS44 KMEG 250410
RWRTN
TENNESSEE HOURLY STATE WEATHER ROUNDUP
NATIONAL WEATHER SERVICE MEMPHIS TN
1100 PM CDT SUN JUL 24 2016

TNZ002-004-019-021-049-052-054-088>092-250500-
WEST TENNESSEE

CITY           SKY/WX    TMP DP  RH WIND       PRES   REMARKS
MEMPHIS INTL   PTCLDY    82  75  79 S3        29.97F
NWS MEMPHIS      N/A     82 N/A N/A MISG        N/A
JACKSON        CLEAR     77  77 100 CALM      29.98F
DYERSBURG      CLEAR     82  77  83 MISG      29.97S HX  91
UNION CITY     CLEAR     79  79 100 CALM      29.95F
PARIS          CLEAR     79  73  83 S6        29.99F
LEXINGTON      CLEAR     75  75 100 CALM      29.99F
$$

TNZ008-025-027-028-033-062-065-066-250500-
NORTH MIDDLE TENNESSEE

CITY           SKY/WX    TMP DP  RH WIND       PRES   REMARKS
NASHVILLE      MOCLDY    82  72  71 S3        30.00F
CLARKSVILLE    CLOUDY    82  76  81 S7        29.98F
SMYRNA         PTCLDY    81  74  79 CALM      30.01F
COOKEVILLE     CLEAR     77  75  94 CALM      30.04F
CROSSVILLE     CLEAR     73  72  96 CALM      30.11F FOG
$$

TNZ061-075-076-078-094-096-097-250500-
SOUTH MIDDLE TENNESSEE

CITY           SKY/WX    TMP DP  RH WIND       PRES   REMARKS
FAYETTEVILLE   CLEAR     77  75  94 S5        30.04F
TULLAHOMA      CLEAR     75  70  83 CALM      30.07S
WINCHESTER     CLEAR     73  72  94 E3        30.06S
MCMINNVILLE    CLEAR     75  75 100 CALM      30.05F
COLUMBIA       CLEAR    N/A N/A N/A CALM      30.01S
SHELBYVILLE    CLEAR     79  75  89 S3        30.04F
$$

TNZ017-018-042-046-047-250500-
NORTHEAST TENNESSEE

CITY           SKY/WX    TMP DP  RH WIND       PRES   REMARKS
TRI CITIES     CLEAR     76  69  79 CALM      30.08F
ELIZABETHTON   PTCLDY    75  70  83 E3        30.09F
$$

TNZ012-013-036-069-073-074-250500-
CENTRAL EAST TENNESSEE

CITY           SKY/WX    TMP DP  RH WIND       PRES   REMARKS
KNOXVILLE      PTCLDY    81  72  74 SW8       30.04S
OAK RIDGE      CLEAR     81  72  74 CALM      30.05F
GATLINBURG     CLEAR     75  70  83 CALM      30.05S
MORRISTOWN     CLEAR     81  72  74 CALM      30.05F
$$

TNZ083-085-099-250500-
SOUTHEAST TENNESSEE

CITY           SKY/WX    TMP DP  RH WIND       PRES   REMARKS
CHATTANOOGA    PTCLDY    79  74  84 CALM      30.05S
$$

SKY/WX REPORTED AS FAIR MEANS FEW OR NO CLOUDS BELOW
12 THOUSAND FEET.





USA.gov is the U.S. government's official web portal to all federal, state and local government web resources and services.